Flag for Spain Weather past 2 weeks in Mahón, Menorca, Spain

Now
49 °F

Cool.


Feels Like: 43 °F
Forecast: 47 / 54 °F
Wind: 18 mph from North

Location: Menorca / Mahon

Current Time: Jan 28, 2015 at 12:53:57 AM

Latest Report: Jan 28, 2015 at 12:00 AM


Visibility: N/A

Pressure: 30.16 "Hg

Humidity: 61%

Dew point: 36 °F

Location of MahónLocation

Historic Weather in Mahón — Graph

°F

Mahón temperature yesterday

Maximum temperature yesterday: 56 °F (at 1:00 PM)
Minimum temperature yesterday: 45 °F (at 5:00 AM)
Average temperature yesterday: 50 °F

Past Weeks' High & Low Weather Summary

 TemperatureHumidityPressure
High62 °F (Jan 14, 3:00 PM)97% (Jan 14, 6:00 AM)30.48 "Hg (Jan 14, 6:00 AM)
Low38 °F (Jan 22, 1:00 AM)34% (Jan 24, 3:00 PM)29.65 "Hg (Jan 21, 1:00 AM)
Average50 °F77%30.02 "Hg
* Reported Jan 12 11:00 PM — Jan 27 11:00 PM, Mahón, Weather by CustomWeather, © 2014

Note: Actual official high and low records may vary slightly from our data, if they occured in-between our weather recording intervals... More about our weather records

Advertising

Mahón weather history for previous 24 hours

 ConditionsComfort  
Time TempWeatherWind HumidityBarometerVisibility
11:00 PM
Jan 27
49 °FCool.18 mph64%30.15 "HgN/A
10:00 PM50 °FOvercast.21 mph62%30.15 "Hg6 mi
9:00 PM51 °FCool.18 mph71%30.14 "HgN/A
8:00 PM51 °FCool.17 mph72%30.15 "HgN/A
7:00 PM51 °FOvercast.12 mph82%30.14 "Hg6 mi
6:00 PM52 °FCool.9 mph77%30.14 "HgN/A
5:00 PM54 °FCool.9 mph72%30.13 "HgN/A
4:00 PM54 °FOvercast.13 mph70%30.12 "Hg12 mi
3:00 PM56 °FCool.15 mph66%30.12 "HgN/A
2:00 PM54 °FOvercast.15 mph69%30.14 "Hg16 mi
1:00 PM56 °FPartly sunny.16 mph67%30.16 "Hg16 mi
12:00 PM56 °FCool.16 mph67%30.19 "HgN/A
11:00 AM53 °FCool.16 mph73%30.21 "HgN/A
10:00 AM52 °FPartly sunny.15 mph77%30.21 "Hg11 mi
9:00 AM50 °FCool.13 mph84%30.22 "HgN/A
8:00 AM47 °FScattered clouds.9 mph87%30.22 "Hg9 mi
7:00 AM47 °FPassing clouds.10 mph87%30.21 "Hg7 mi
6:00 AM46 °FCool.9 mph90%30.22 "HgN/A
5:00 AM45 °FCool.8 mph91%30.23 "HgN/A
4:00 AM46 °FOvercast.6 mph91%30.25 "Hg7 mi
3:00 AM47 °FFog.3 mph90%30.27 "HgN/A
2:00 AM47 °FFog.5 mph89%30.28 "HgN/A
1:00 AM48 °FLight rain. Overcast.10 mph81%30.29 "Hg5 mi
12:00 AM49 °FCool.15 mph68%30.29 "HgN/A
Weather by CustomWeather, © 2014

See weather overviewHow to use our weather pages